Regional Weather Roundup
Issued by NWS Wakefield, VA

Home | Current Version | Previous Version | Graphics & Text | Print | Product List | Glossary On
Versions: 1 2 3 4 5 6 7 8 9 10 11 12 13 14 15 16 17 18 19 20 21 22 23 24 25 26 27 28 29 30 31 32 33 34 35 36 37 38 39 40 41 42 43 44 45 46 47 48 49 50
000
ASUS41 KAKQ 022015
RWRAKQ

REGIONAL WEATHER ROUNDUP
NATIONAL WEATHER SERVICE WAKEFIELD VA
400 PM EDT WED SEP 02 2015

Note: "fair" indicates few or no clouds below 12,000 feet with no
significant weather and/or obstructions to visibility. * = Denotes
station may not report precipitation (e.g., rain,snow,etc.),
thunder or fog.

VAZ042-051-052>054-056-022100-
NORTHERN VIRGINIA

CITY           SKY/WX    TMP DP  RH WIND       PRES   REMARKS
WASH NATIONAL  PTSUNNY   92  65  40 W9        29.95F
DULLES         CLOUDY    85  65  51 NW8       29.97R
FORT BELVOIR   MOSUNNY   92  67  43 NW6       29.95F
QUANTICO       PTSUNNY   87  71  58 S3        29.96F
FREDERICKSBRG* MOSUNNY   93  69  45 NE3       29.95S HX  97
STAFFORD*      MOSUNNY   91  68  46 NE5       30.00F HX  95
WARRENTON      MOSUNNY   89  69  51 CALM      29.97S
CULPEPER*      PTSUNNY   86  69  56 NW3       29.99R
MANASSAS*      SUNNY     90  66  45 SE7       29.96F
LEESBURG*      PTSUNNY   82  72  69 SW6       29.99F
WINCHESTER     CLOUDY    73  68  83 CALM      30.01F
FRONT ROYAL*   FAIR      70  68  94 S7        30.03R
LURAY*         MOCLDY    79  64  61 N7        30.02F
$$

VAZ048-049-060>072-079>083-022100-
CENTRAL AND SOUTH CENTRAL VIRGINIA

CITY           SKY/WX    TMP DP  RH WIND       PRES   REMARKS
RICHMOND       PTSUNNY   79  65  62 CALM      29.98F THUNDER
CHESTERFIELD*  FAIR      88  61  40 NE10G16   29.98F
PETERSBURG*    PTSUNNY   93  72  51 S5        29.96F HX 101
HANOVER        MOSUNNY   80  70  71 VRB7      29.99R THUNDER
TAPPAHANNOCK*  MOSUNNY   84  65  51 S9        29.98F THUNDER
QUINTON*       MOCLDY    74  71  92 W3        29.98F
CHARLOTTSVILLE PTSUNNY   84  71  65 N3        30.00S
GORDONSVILLE*  FAIR      85  71  60 NW3       29.98R
ORANGE*        PTSUNNY   84  73  70 NW3       30.00S
LOUISA*        PTSUNNY   91  66  43 CALM      29.97S
BUMPASS*       FAIR      91  65  42 CALM      29.97S
FARMVILLE*     MOSUNNY   95  63  34 CALM      29.95F HX  96
CREWE*         MOCLDY   N/A N/A N/A W3        29.96F
FORT PICKETT*  FAIR      88  71  56 SE7       29.97F
CHASE CITY*    FAIR      94  68  42 CALM      29.96F HX  99
CLARKSVILLE*   FAIR      93  66  40 SW5       29.96F HX  96
SOUTH HILL*    PTSUNNY   91  70  50 SW6       30.02F HX  96
LAWRENCEVILLE* FAIR      86  72  62 NE5       29.97F
EMPORIA*       CLOUDY    88  72  58 CALM      29.97F
$$

VAZ088>098-022100-
SOUTHEAST VIRGINIA

CITY           SKY/WX    TMP DP  RH WIND       PRES   REMARKS
NORFOLK        PTSUNNY   89  68  49 SE6       29.95F
VIRGINIA BEACH PTSUNNY   88  72  58 SE7       29.95F
NORFOLK NAVAL  CLOUDY    88  69  53 NE8       29.96F
WEST POINT*    CLOUDY    76  70  81 E3        30.00F
SALUDA*        CLOUDY    76  68  77 CALM      29.97S
NEWPORT NEWS   CLOUDY    89  70  53 E7        29.95F
LANGLEY AFB    CLOUDY    89  71  54 SE5       29.94F HX  95
FORT EUSTIS    CLOUDY    90  67  46 S6        29.93F
WILLIAMSBURG*  CLOUDY    91  73  55 N9        29.96F HX 100
HR EXEC AP*      N/A     90  70  51 SW6       29.97F HX  95
FRANKLIN*      CLOUDY    84  72  67 E5        29.96F
WAKEFIELD      CLOUDY    92  68  45 SW5       29.95F HX  96
$$

VAZ020-022-025-037-045-022100-
WEST CENTRAL AND SOUTHWEST VIRGINIA

CITY           SKY/WX    TMP DP  RH WIND       PRES   REMARKS
STAUNTON*      PTSUNNY   85  65  51 NW10      30.05S
WAYNESBORO*    FAIR      85  64  48 S6        30.04R
HOT SPRINGS VA MOSUNNY   75  60  60 NW7       30.17F
LYNCHBURG      MOSUNNY   90  63  40 VRB6      30.00F
DANVILLE       MOSUNNY   93  65  39 W5        29.98F HX  95
SOUTH BOSTON*  FAIR      95  61  32 SW5       29.96F HX  95
MARTINSVILLE   MOSUNNY   94  62  33 CALM      30.03F
ROANOKE        MOSUNNY   91  62  37 SW7       30.03F
BLACKSBURG     SUNNY     86  64  48 W3        30.12F
DUBLIN*        CLOUDY    87  64  46 N5        30.11F
MARION*        MOSUNNY   84  62  48 W6        30.16F
HILLSVILLE*    CLOUDY    80  65  60 N5        30.13F
RICHLANDS*     MOCLDY    83  20  10 N7        30.15F
WISE*          MOSUNNY   81  59  47 N8        30.17F
ABINGDON*      MOSUNNY   86  59  39 NW5       30.11F
$$

MDZ021>025-VAZ099-100-022100-
SOUTHERN MARYLAND AND THE DELMARVA PENINSULA

CITY           SKY/WX    TMP DP  RH WIND       PRES   REMARKS
PATUXENT RIVER PTSUNNY   84  70  62 SE6       29.96F THUNDER
BAY BRIDGE APT   N/A     88  66  48 SE7       29.94F
LEONARDTOWN    NOT AVBL
DOVER          PTSUNNY   85  69  57 SE7       29.93F
GEORGETOWN     PTSUNNY   88  69  53 SE8       29.95F
EASTON         PTSUNNY   90  66  45 NW5       29.98F
CAMBRIDGE      PTSUNNY   91  61  35 N6        29.94F
SALISBURY      PTSUNNY   89  68  49 W3        29.95F
OCEAN CITY     PTSUNNY   83  71  67 VRB5      29.96F
WALLOPS ISLAND PTSUNNY   83  74  74 SE7       29.96F
ACCOMACK*      CLOUDY    81  77  89 W5        29.96F
$$

NCZ012>017-030>032-022100-
NORTH CENTRAL AND EASTERN NORTH CAROLINA

CITY           SKY/WX    TMP DP  RH WIND       PRES   REMARKS
ROANOKE RAPIDS FAIR      86  72  62 SE5       29.96F
RALEIGH        PTSUNNY   90  68  48 SW9       29.99F
ELIZABETH CITY SUNNY     90  69  50 S8        29.97F
AHOSKIE*       PTSUNNY   90  73  56 CALM      29.97F HX  98
EDENTON*       SUNNY     90  64  41 S5        29.97F
CURRITUCK*     MOSUNNY   88  69  52 S5        29.98F
KILL DEVIL HLS SUNNY     91  69  49 SE3       29.97F HX  95
MANTEO         SUNNY     85  72  65 SW7       29.98F
CAPE HATTERAS  PTSUNNY   86  73  65 S6        29.99F
TARBORO*       MOCLDY    93  69  45 SW7       29.98F HX  98
GOLDSBORO      MOSUNNY   93  69  45 VRB1      29.97F HX  98
WASHINGTON     MOSUNNY   90  66  44 NW3       29.98F
GREENVILLE     MOSUNNY   91  68  46 W7        30.00F HX  95
NEW BERN       MOSUNNY   90  67  46 CALM      30.00F
WILMINGTON     MOSUNNY   91  67  44 CALM      29.99F
$$

VAZ048-022100-
ELSEWHERE

CITY           SKY/WX    TMP DP  RH WIND       PRES   REMARKS
HARRISBURG PA  MOSUNNY   91  61  36 NW10      29.93F
BALTIMORE      PTSUNNY   92  66  42 NW6       29.93F
ANNAPOLIS      MOSUNNY   84  73  69 SE10      29.94F
ANDREWS AFB    MOSUNNY   91  66  43 CALM      29.94F
PHILADELPHIA   PTSUNNY   92  62  36 S9        29.92F
HENDERSON NC   SUNNY     91  60  36 SW8       29.98F
GREENSBORO     PTSUNNY   91  63  39 CALM      30.00F
ROCKY MOUNT    MOSUNNY   92  68  45 S3        29.98F HX  96
$$

VAZ100-022100-
MARINE

STATION/POSITION TIME  TEMP    WIND        PRES    WAVE   SWELL
                       AIR SEA DIR/SP/G            HT/PER HT/PER
                 (UTC) (F)     (DEG/KT/KT) (MB)    (FT/S) (FT/S)
BRANDYWINE LGT   1900   77 76  170/  7/  8 1015.2F
CAPE MAY NJ      1900   81 80  150/  6/  7 1014.6F
LEWES DE         1900   81 77   90/  6/  7 1014.7F
15NM E FENWICK I 1950   79 82  110/  2/  2 1014.7F   1/14   2/14
OCEAN-CITY-INLET 1900   81 77  130/  4/  7 1014.2F
THOMAS POINT MD  1900   83 81  160/  4/  5 1015.0F
GOOSES REEF MD   2000   85 83  140/  4/  4 1015.2F
COVE POINT MD    1900   83      70/  1/  3 1015.5F
SOLOMONS ISLAND  1900      83                N/A
BISHOPS HEAD MD  1900   81 86  260/  6/  7 1014.1F
PINEY POINT MD   1905          130/  6/  6   N/A
POTOMAC MD       2000   84 81  160/  2/  2 1013.2F   0
CAMBRIDGE MD     1900   86 81  300/  5/  7 1014.0F
LEWISETTA VA     1900   82 81  110/  6/  7 1014.4F
RAPPAHANNOCK LGT 1900          160/  4/  4 1015.5F
STINGRAY PT      2000   82 82  170/  4/  6 1015.1F   0
YORK RVR RNG VA  1900   82     140/  9/ 10 1014.3F
YORKTOWN VA      1900   84 81   90/ 10/ 10 1014.5F
JAMESTOWN VA     2000   86 83  310/ 12/ 23   N/A
DOMINION TERM VA 1900   87     160/  2/  3 1014.8F
KIPTOPEKE VA     1900      80  190/  4/  5   N/A
CHES BAY BRIDGE  1900   83 79   70/  8/  9 1014.7F
CAPE HENRY VA    1900   84     130/ 10/ 12   N/A
CHESAPEAKE LGHT  1900   81     160/  8/  9 1016.1F
WILLOUBY STN VA  1900   86      40/  2/  6 1016.0F
CAPE HENRY BUOY  1928      83                N/A     1/11
1ST LANDING BUOY 2000      80              1014.3F   1/ 3
CAPE CHARLES BUO 1926      81                N/A     1/14   2/14
OFFSHORE WE BUOY 1911      81                N/A     1/10   2/10
64NM E OF VA BCH 1950   81 82  210/  8/  8 1015.0F   2/ 9   2/ 9
DUCK PIER NC     1900   84 81  140/  9/  9 1015.2F
44100 DUCK FRF   1924      83                N/A     1/10
44056 DUCK FRF   1911      83                N/A     1/ 9
OREGON INLET NC  1900   82 81  100/  4/  6 1016.3F
HATTERAS NC      1900   83 82  340/  2/  3 1016.3F
DIAMOND SHLS NC  1850   82 85  340/  2/  4 1016.9    2/ 9   2/ 9
CAPE LOOKOUT NC  2000   82     150/  7/  7 1015.6F
$$


USA.gov is the U.S. government's official web portal to all federal, state and local government web resources and services.